Location: ?????
(42.2640°N, 43.4211°E)
Time: 13:50:43
(UTC+00:00)

USA 229 DEB - Pass Details

Date: 07 August 2020
Orbit: 974 x 1238 km, 63.4° (Epoch: 17 September)

Event Time Altitude Azimuth Distance (km) Brightness Sun altitude
Exits shadow 01:01:08 14° 242° (WSW) 2,469 5.0 -11.2°
Maximum altitude 01:06:32 49° 314° (NW) 1,309 4.1 -10.4°
Drops below altitude 10° 01:13:09 10° 28° (NNE) 2,920 7.0 -9.4°
Sets 01:16:01 0° 34° (NE) 3,921 8.0 -8.9°
